Tracking 30101 objects as of 14-Dec-2024
HD Live streaming from Space Station
objects crossing your sky now

STARLINK-11393

Track STARLINK-11393 now!
10-day predictions
STARLINK-11393 is classified as:


NORAD ID: 62016
Int'l Code: 2024-213J
Perigee: 345.7 km
Apogee: 348.0 km
Inclination: 53.2 °
Period: 91.3 minutes
Semi major axis: 6717 km
RCS: Unknown
Launch date: November 18, 2024
Source: United States (US)
Launch site: AIR FORCE WESTERN TEST RANGE (AFWTR)
Your satellite tracking list
Your tracking list is empty




NASA's NSSDC Master Catalog

Two Line Element Set (TLE):
1 62016U 24213J   24348.59423675  .00011222  00000-0  72442-4 0  9990
2 62016  53.1572 108.0859 0001709 120.5499 239.5691 15.76738898  4964
Source of the keplerian elements: AFSPC